Location: Unspecified
(0.0000°N, 0.0000°E)
Time: 16:24:24
(UTC+00:00)

Vanguard 2 - Pass Details

Date: 20 November 2019
Orbit: 553 x 2938 km, 32.9° (Epoch: 13 December)

Event Time Altitude Azimuth Distance (km) Brightness Sun altitude
Rises 17:24:01 0° 280° (W) 2,910 11.7 5.1°
Reaches altitude 10° 17:26:15 10° 268° (W) 2,153 11.6 4.6°
Maximum altitude 17:30:35 30° 206° (SSW) 1,515 9.8 3.5°
Drops below altitude 10° 17:36:52 10° 147° (SSE) 3,168 10.6 2.1°
Sets 17:40:55 0° 138° (SE) 4,573 11.3 1.1°
